Location: Zagreb
(45.8000°N, 16.0000°E)
Time: 20:33:11
(UTC+01:00)

Oscar 11 - Pass Details

Date: 06 November 2020
Orbit: 613 x 625 km, 97.6° (Epoch: 01 December)

Event Time Altitude Azimuth Distance (km) Brightness Sun altitude
Rises 05:29:09 0° 24° (NNE) 2,891 10.7 -13.3°
Reaches altitude 10° 05:31:40 10° 37° (NE) 1,981 10.0 -12.8°
Maximum altitude 05:35:15 25° 94° (E) 1,240 9.6 -12.2°
Drops below altitude 10° 05:38:49 10° 151° (SSE) 1,970 10.2 -11.6°
Sets 05:41:18 0° 164° (SSE) 2,872 10.9 -11.2°
